カタログに戻る

ATLAS 5 CENTAUR R/B

運用中HEO
NORAD 39071·ROCKET BODY·🇺🇸 United States

打ち上げ Jan 31, 2013 から Cape Canaveral Space Force Station

Loading…

次のパス (今後24時間)

TLE

最新Source: Space-Track

元期: Sep 12, 2026, 02:45 UTC

1 39071U 13004B   26255.11463138 -.00000115  00000-0  00000-0 0  9993
2 39071  25.1034 235.5537 5879110 124.1840 305.9134  2.09790981104340

AllMySatでATLAS 5 CENTAUR R/Bをリアルタイム追跡

Download on the App Store